User: anonymous   Login
Location: Unspecified
(0.0000°N, 0.0000°E)
Time: 10:53:21
(UTC+00:00)
Language:

NNS O-29 - Orbit

View from above orbital plane
View from above orbital plane
View from above satellite
View from above satellite

Ground track
Ground track

The orbit data is extracted from the following two-line orbital elements,

1 18362U 87080B   24251.93908375  .00000314  00000-0  50670-3 0  9990
2 18362  90.3601  62.7711 0107266 125.8631 349.3313 13.44327209813185
Epoch (UTC): 07 September 2024 22:32:16
Eccentricity: 0.0107266
inclination: 90.3601°
perigee height: 1013 km
apogee height: 1173 km
right ascension of ascending node: 62.7711°
argument of perigee: 125.8631°
revolutions per day: 13.44327209
mean anomaly at epoch: 349.3313°
orbit number at epoch: 81318

The dashed part of the orbit path shows where the satellite is in the earth's shadow,  

DLR